Regional Weather Roundup
Issued by NWS

Home | Current Version | Previous Version | Text Only | Print | Product List | Glossary On
Versions: 1 2 3 4 5 6 7 8 9 10 11 12 13 14 15 16 17 18 19 20 21 22 23 24 25 26 27 28 29 30 31 32 33 34 35 36 37 38 39 40 41 42 43 44 45 46 47 48 49 50
000
ASUS43 KFSD 260010
RWRSD

WEATHER ROUNDUP FOR SOUTH DAKOTA
NATIONAL WEATHER SERVICE SIOUX FALLS SD
700 PM CDT MON JUL 25 2016

NOTE: "FAIR" INDICATES FEW OR NO CLOUDS BELOW 12,000 FEET WITH NO
SIGNIFICANT WEATHER AND/OR OBSTRUCTIONS TO VISIBILITY.


SDZ001>005-009-010-012>017-260100-
NORTHWEST AND NORTH CENTRAL SOUTH DAKOTA

CITY           SKY/WX    TMP DP  RH WIND       PRES   REMARKS
BUFFALO          N/A     88  51  28 E13       29.90R
FAITH            N/A     96  46  18 S13G21    29.94F
MOBRIDGE       SUNNY     98  50  19 S14       29.89F HX  95
$$

SDZ012>016-024>037-041>051-057-063-072>074-260100-
SOUTHWEST AND SOUTH CENTRAL SOUTH DAKOTA

CITY           SKY/WX    TMP DP  RH WIND       PRES   REMARKS
RAPID CTY ARPT CLOUDY    86  49  27 W8        29.99S
PIERRE         CLOUDY    94  48  20 SW15      29.94S
CUSTER         CLOUDY    79  53  40 E14G22    30.19S
ELLSWORTH AFB  MOSUNNY   87  54  32 SW9       29.99
PHILIP         CLOUDY    93  57  29 S13       29.95S
PINE RIDGE     SUNNY     90  59  35 S15G22    30.03S
WINNER         FAIR      93  49  22 S15       30.01S
$$

SDZ004>011-016>023-039-040-260100-
NORTHEAST SOUTH DAKOTA

CITY           SKY/WX    TMP DP  RH WIND       PRES   REMARKS
ABERDEEN       SUNNY     89  62  40 S12       29.95S
WATERTOWN      SUNNY     85  63  47 S12       30.02F
BROOKINGS      SUNNY     82  65  56 S9        30.04F
SISSETON         N/A     87  59  38 SW12G18   29.96S
$$

SDZ017-020-022-023-036>040-048>070-260100-
SOUTHEAST SOUTH DAKOTA

CITY           SKY/WX    TMP DP  RH WIND       PRES   REMARKS
SIOUX FALLS    SUNNY     83  61  47 S9        30.04F
HURON          SUNNY     89  55  31 S15G23    29.98F
CHAMBERLAIN    SUNNY     91  54  29 S14G20    29.99F
MITCHELL       SUNNY     89  58  34 S10       30.01F
YANKTON        SUNNY     86  57  37 S10       30.02S
$$

ABBREVIATIONS USED IN REMARKS
   TC - TEMPERATURE IN CELSIUS
  WCI - WIND CHILL INDEX
   HX - HEAT INDEX
  VSB - VISIBILITY





USA.gov is the U.S. government's official web portal to all federal, state and local government web resources and services.